COSMOS 886 DEB, 9966

Orbit data source: Space-Track

COSMOS 886 DEB, 9966 is space debris in LEO originally from a launch on Mon, 27 Dec 1976 UTC launched from the Tyuratam Missile And Space Complex (TTMTR). Debris objects in space refer to the collection of defunct objects orbiting the Earth. Examples of debris include non-operational satellites, rocket bodies, and fragments generated from explosions, collisions, or faulty payload assembly.

Loading next visibility...
Identifier
9966, 1976-126BG
Orbit
LEO
Country
Flag of CISCIS
Related business
Manufacturer
Unknown
Mission
Spacecraft
Bus & Motor
Unknown
Mass
Unknown
Launch date (UTC)
1976-12-27 (49 years ago)
Launch vehicle
Unknown
Launch site
Tyuratam Missile And Space Complex (TTMTR)
Object type
Payload
Rocket body
Debris
Shape & HBR
Unknown shape, 0.1 m
Radar Cross Section
Medium (>0.1 m² and <1 m²)

Expand to show TLE details & history
Last TLE update: 1 day ago

TLE from 1 day ago
0 COSMOS 886 DEB
1 09966U 76126BG  26174.29835632  .00001376  00000-0  48580-3 0  9995
2 09966  65.7750 253.7586 0618396 350.0891   8.8405 13.64419381372116
Epoch: 2026-06-23T07:09Z
TLE epoch observation values (Epoch: 2026-06-23T07:09:37.986Z)
Latitude
0.00005°
Longitude
-125.12158°
Altitude
570.306 km
Speed
7.804 km/s
True Right ascension
16h 55m 02s
True Declination
0° 00' 00"
Sunlit
Object was in full shadow at epoch
Visualization orbit readout
Latitude
Unknown
Longitude
Unknown
Altitude
Unknown
Speed
Unknown
Apparent Right ascension
Unknown
Apparent Declination
Unknown
Sunlit
N/A
Visualization observer readout
Local Sidereal Time
04:45:29
Azimuth
Unknown
Elevation
Unknown
Doppler factor
Unknown
Orbital elements
Apogee altitude
1,475.584 km
Perigee altitude
560.811 km
Semi-major axis
7,396.334 km
Eccentricity
0.06184
Inclination
65.775°
RAAN
253.7586°
Arg. of periapsis
350.0891°
True anomaly
10.0192°
Mean anomaly
8.8405°
Eccentric anomaly
9.42043°
Mean motion
3.41207 °/min
Orbital period
105.51 mins
BSTAR
0.0004858
Loading maneuver chart data...
Computing Atmospheric mass density...
Loading historical data...
Loading historical data...
Loading historical data...
Loading historical data...
Loading historical data...
Loading historical data...
Loading historical data...

Documentation

Showing up to 5 results
|